Location: Coucolette
(50.6866°N, 1.6859°E)
Time: 16:01:39
(UTC+00:00)

Daily predictions for brighter satellites

Satellite Brightness Start Highest point End
(mag) Time Altitude Azimuth Time Altitude Azimuth Time Altitude Azimuth
Cosmos 1975 3.1 18:15:18 10° SSE 18:19:05 44° E 18:22:54 10° NNE
Feng Yun 1-1 Rocket 4.2 18:14:18 10° SSE 18:19:41 86° ENE 18:25:08 10° NNW
H-2A R/B 2.5 18:16:14 10° NNE 18:20:12 37° E 18:24:03 10° SSE
HJ-1C 3.6 18:18:22 10° SSE 18:21:32 48° ENE 18:24:44 10° N
Lacrosse 4 Rocket 2.2 18:19:04 10° SW 18:23:01 52° NW 18:27:01 10° NNE
Geosat 4.5 18:19:10 10° NE 18:23:53 39° ESE 18:28:35 10° S
ARGOS 3.3 18:18:39 10° SSE 18:24:01 83° WSW 18:29:26 10° NNW
Cosmos 921 Rocket 4.1 18:21:02 10° NNW 18:25:14 49° WSW 18:29:20 10° S
USA 276 2.8 18:26:03 10° SW 18:28:59 37° SSE 18:31:57 10° E
Okean-O 2.8 18:27:54 10° SSE 18:32:12 54° ENE 18:36:33 10° N
Cosmos 1400 Rocket 3.7 18:29:16 10° SSE 18:32:48 29° E 18:36:19 10° NNE
Cosmos 2278 Rocket 2.8 18:27:32 10° SW 18:33:10 63° WNW 18:38:50 10° NNE
Cosmos 1943 Rocket 2.7 18:28:18 10° S 18:33:19 36° ESE 18:38:25 10° NE
SJ-6B 4.1 18:30:21 10° ESE 18:33:39 24° ENE 18:36:57 10° N
Cosmos 2074 Rocket 4.1 18:30:25 10° SSE 18:36:28 53° E 18:42:33 10° NNE
Cosmos 2369 Rocket 3.3 18:33:58 10° SSE 18:38:01 21° E 18:42:04 10° NE
Cosmos 1356 Rocket 3.8 18:35:43 10° SSW 18:39:59 71° WNW 18:44:18 10° N
CZ-2C R/B 2.8 18:34:52 10° NNE 18:40:23 86° WNW 18:45:59 10° SSW
BREEZE-M DEB (TANK) 4.2 18:32:12 10° WSW 18:42:05 52° SSE 18:45:09 12° E
Cosmos 1486 Rocket 4.0 18:37:17 10° SSW 18:42:30 72° ESE 18:47:49 10° NNE
Cosmos 2297 3.9 18:37:52 10° S 18:43:17 47° ESE 18:48:46 10° NE
Meteor 1-21 4.4 18:38:18 10° NNW 18:44:00 83° W 18:49:37 10° S
OBJECT-B 1.7 18:42:57 10° SE 18:45:43 28° ENE 18:48:30 10° N
Resurs 01 Rocket 3.4 18:46:34 11° E 18:48:32 15° ENE 18:51:00 10° NNE
Cosmos 1975 Rocket 3.9 18:44:36 10° N 18:48:33 31° ENE 18:52:26 10° SE
CSL-04 Debris 4.2 18:44:56 10° SSE 18:50:17 69° ENE 18:55:40 10° NNW
USA 305 3.4 18:47:16 10° W 18:51:24 54° N 18:55:16 12° ENE
USA 186 2.3 18:51:22 13° SE 18:53:33 33° ENE 18:56:23 10° N
COSMOS 2455 3.0 18:48:53 10° NW 18:54:57 79° WSW 19:00:59 10° SSE
Cosmos 1707 2.9 18:52:42 10° NNW 18:56:38 78° W 19:00:31 10° S
Cosmos 1184 Rocket 3.9 18:53:55 10° N 18:56:39 25° ENE 18:58:00 19° ESE
Cosmos 1674 2.7 18:56:31 10° N 19:00:10 53° ENE 19:03:48 10° SSE
ISS -3.8 18:57:02 10° WSW 19:00:24 76° SSE 19:02:48 18° ENE
H-2A R/B 4.3 18:56:50 10° SSW 19:00:56 37° W 19:05:09 10° NNW
Cosmos 773 Rocket 4.0 18:58:45 10° NNW 19:04:01 72° ENE 19:09:17 10° SSE
DMSP B5D2-2 4.0 18:59:28 10° NNE 19:04:48 77° ESE 19:10:05 10° S
USA 307 3.4 19:00:59 10° W 19:05:10 54° N 19:08:31 15° ENE
Okean O Rocket 4.4 19:04:34 10° SW 19:07:52 21° W 19:11:10 10° NW
Cosmos 1378 Rocket 4.3 19:04:52 10° NNW 19:09:12 55° W 19:13:31 10° S
Cosmos 1908 Rocket 3.5 19:05:02 10° S 19:09:28 73° E 19:13:57 10° NNE
KORONAS-FOTON 3.6 19:07:22 10° N 19:11:09 74° E 19:14:55 10° SSE
Cosmos 1766 4.5 19:12:34 22° E 19:12:37 22° E 19:15:38 10° NE
SeaSat 1 2.4 19:08:11 12° SE 19:12:49 80° ENE 19:17:47 10° NNW
Cosmos 1656 Rocket 4.4 19:13:24 10° SSE 19:18:04 28° ESE 19:22:41 10° NE
USA 306 3.4 19:15:13 10° WNW 19:19:23 53° N 19:22:04 21° ENE
Cosmos 1346 Rocket 2.7 19:16:01 10° N 19:20:02 67° ENE 19:23:11 16° SSE
USA 281 4.2 19:15:22 10° NE 19:20:17 22° E 19:21:34 21° ESE
Cosmos 2184 Rocket 4.1 19:15:00 10° SSW 19:21:20 81° W 19:27:41 10° N
SL-27 R/B 4.2 19:20:01 10° N 19:22:15 17° NE 19:22:15 17° NE
YAOGAN 1 4.4 19:18:41 10° SSW 19:22:35 32° W 19:26:30 10° NNW
USA 308 3.4 19:20:19 10° WNW 19:24:30 54° N 19:27:02 22° ENE
IGS 5A 4.4 19:23:27 26° E 19:24:32 30° ENE 19:28:10 10° N
Cosmos 1626 2.0 19:21:30 10° N 19:25:12 65° ENE 19:27:24 22° SSE
ATLAS CENTAUR R/B 2.4 19:21:25 10° NW 19:25:56 52° SW 19:30:02 13° SSE
Cosmos 1461 4.5 19:22:25 10° WNW 19:25:57 30° WSW 19:29:24 10° S
Cosmos 1733 3.6 19:24:41 24° SE 19:26:24 39° E 19:29:59 10° NNE
Cosmos 2327 Rocket 4.4 19:22:48 10° S 19:29:01 79° E 19:35:24 10° NNE
Cosmos 1295 Rocket 4.4 19:23:51 10° S 19:30:04 77° E 19:36:24 10° NNE
Ariane Rocket 3.3 19:30:43 26° SE 19:33:15 48° ENE 19:38:08 10° N
CZ-4B R/B 1.9 19:31:15 10° N 19:34:14 54° WNW 19:37:16 10° SSW
Cosmos 1610 Rocket 4.4 19:28:27 10° S 19:34:43 87° E 19:40:56 10° N
Cosmos 1238 Rocket 4.1 19:29:40 10° SSW 19:36:03 75° W 19:41:40 10° N
SJ 16-02 1.7 19:31:56 10° S 19:36:04 40° ESE 19:40:14 10° NE
Okean 2 Rocket 4.2 19:38:54 26° ENE 19:38:54 26° ENE 19:41:53 10° NNE
Cosmos 1538 Rocket 4.0 19:33:34 10° NNW 19:38:56 71° ENE 19:41:54 27° SE
USA 215 3.9 19:34:11 14° SSE 19:39:36 49° SW 19:45:57 10° WNW
CSL-04 Rocket 4.3 19:34:43 10° S 19:39:58 56° W 19:45:20 10° NNW
Cosmos 2154 Rocket 4.1 19:33:54 10° S 19:40:15 83° W 19:46:40 10° N
Landsat 7 4.3 19:39:18 33° ESE 19:40:39 40° ENE 19:45:06 10° N
Sich 1 Rocket 3.9 19:44:12 37° SE 19:45:18 44° E 19:49:37 10° NNE
Meteor 2-20 4.4 19:42:07 10° N 19:48:15 67° ENE 19:51:54 25° SSE
Lacrosse 5 rocket 2.4 19:45:33 10° WNW 19:49:52 43° SW 19:51:42 28° S
CZ-4 R/B 4.3 19:47:49 10° SW 19:50:05 15° W 19:52:21 10° NW
SL-8 Rocket 4.1 19:47:14 13° SSE 19:52:41 55° E 19:58:49 10° NNE
SPOT 3 Rocket 4.0 19:52:55 37° E 19:54:02 42° ENE 19:58:53 10° N
Meteor 1-24 Rocket 3.7 19:49:52 10° N 19:55:06 53° ENE 19:56:39 40° ESE
ERBS 4.0 19:52:19 10° WNW 19:55:12 27° N 19:56:15 23° NNE
H-2A R/B 4.2 19:52:26 10° N 19:56:03 27° WNW 19:59:34 10° WSW
Cosmos 2297 Rocket 3.8 19:52:34 10° NNW 19:56:40 20° NE 19:58:26 17° ENE
Cosmos 1339 Rocket 4.4 19:51:50 10° N 19:58:07 80° E 20:01:58 24° SSE
Cosmos 1315 Rocket 2.6 19:58:58 40° S 20:00:18 78° E 20:04:21 10° NNE
Cosmos 1782 Rocket 4.0 19:56:18 10° SSW 20:00:42 64° WNW 20:05:07 10° N
MOS 1 4.2 19:57:42 25° SSE 20:01:07 89° E 20:06:52 10° NNW
IRS-1A Rocket 4.3 19:58:32 26° SSE 20:02:01 87° ENE 20:07:58 10° NNW
Lacrosse 4 Rocket 4.3 20:00:36 10° WNW 20:02:37 13° NNW 20:04:38 10° N
Cosmos 1727 Rocket 4.3 19:57:52 10° N 20:04:00 48° ENE 20:05:38 40° ESE
APEX 3.5 19:59:21 10° NNW 20:04:33 78° ENE 20:05:18 60° SE
USA 276 2.8 20:01:50 10° W 20:04:15 49° WSW 20:04:15 49° WSW
Cosmos 1441 Rocket 3.1 20:02:34 10° N 20:06:08 68° NE 20:06:08 68° NE
Cosmos 1536 Rocket 3.7 20:03:25 10° N 20:07:47 54° ENE 20:07:47 54° ENE
SJ-6B 4.1 20:05:04 16° SSW 20:08:05 42° W 20:12:01 10° NNW
Helios 1A Rocket 3.3 20:08:36 37° SSW 20:10:02 62° WSW 20:14:06 10° NNW
Cosmos 1833 4.2 20:04:27 10° NNW 20:10:07 82° WSW 20:12:13 40° SSE
Cosmos 158 Rocket 3.9 20:06:17 10° NNW 20:11:22 79° WSW 20:12:55 45° S
Cosmos 2151 Rocket 4.4 20:12:45 38° NE 20:12:45 38° NE 20:15:53 10° NNE
Iridium 4 Rocket 4.4 20:07:43 10° NNE 20:10:19 26° NE 20:10:19 26° NE
SL-14 R/B 3.6 20:09:00 10° NNW 20:12:58 63° W 20:13:51 47° SSW
EO 1 Delta rocket 4.1 20:11:21 32° S 20:13:38 77° W 20:19:09 10° NNW
Meteor 2-20 Rocket 4.3 20:08:44 10° N 20:14:54 77° ENE 20:17:10 41° SSE
Cosmos 1777 Rocket 4.1 20:09:42 10° SSW 20:14:57 76° WNW 20:20:13 10° NNE
Cosmos 1943 Rocket 3.2 20:11:36 10° SW 20:16:59 47° NW 20:22:25 10° NNE
GENESIS II 4.3 20:13:13 10° SW 20:16:40 69° WSW 20:16:40 69° WSW
OBJECT-B 3.4 20:15:47 12° SW 20:17:51 19° W 20:20:14 10° NW
Cosmos 2227 Rocket 3.8 20:14:29 10° NNW 20:18:44 21° NE 20:19:56 20° NE
Cosmos 923 Rocket 3.9 20:15:34 10° NNW 20:20:47 72° ENE 20:21:26 63° ESE
Cosmos 2369 Rocket 2.3 20:15:45 10° SSW 20:21:25 78° WNW 20:27:05 10° NNE
Cosmos 1025 Rocket 3.6 20:18:02 10° NNW 20:22:18 55° W 20:23:38 38° SSW
Cosmos 1805 4.4 20:20:31 10° SSW 20:24:12 42° WNW 20:27:56 10° N
Resurs 01 Rocket 1.5 20:24:08 78° S 20:24:25 87° WSW 20:28:53 10° NNW
Meteor 1-15 Rocket 4.3 20:20:20 10° SSW 20:25:53 77° WNW 20:31:32 10° N
Cosmos 2341 Rocket 4.2 20:20:59 10° SSW 20:27:17 74° WNW 20:33:42 10° N
Spot 2 Rocket 4.0 20:28:30 42° NE 20:28:30 42° NE 20:32:54 10° N
Cosmos 1900 4.5 20:24:38 10° NNW 20:29:29 58° NE 20:29:32 58° NE
SPOT 1/Viking Rocket 3.4 20:30:21 69° ESE 20:30:41 72° ENE 20:35:51 10° N
USA 305 3.1 20:27:25 10° WNW 20:31:17 66° NNW 20:31:17 66° NNW
NOSS 3-3 (A) 4.4 20:24:54 10° NW 20:32:17 85° NE 20:34:58 47° SE
NOSS 3-3 (C) 4.4 20:25:00 10° NW 20:32:22 84° NE 20:35:03 48° SE
Cosmos 2366 rocket 3.8 20:31:38 33° S 20:34:37 87° E 20:40:48 10° N
Cosmos 1680 Rocket 3.4 20:29:38 10° NNW 20:34:55 72° ENE 20:35:04 72° E
ARIANE 5 R/B 4.0 20:36:51 28° NNE 20:36:51 28° NNE 20:39:32 10° N
SPOT 5 3.8 20:36:25 39° NE 20:36:25 39° NE 20:40:53 10° N
ISS -1.9 20:33:57 10° W 20:35:48 30° WNW 20:35:48 30° WNW
Cosmos 1300 Rocket 4.1 20:37:51 39° SW 20:39:08 55° WNW 20:43:27 10° N
Cosmos 1241 Rocket 4.3 20:33:11 10° NW 20:39:32 88° SW 20:40:35 64° SSE
Meteor 2-5 Rocket 4.1 20:34:19 10° NNW 20:39:47 60° W 20:41:41 39° SSW
Cosmos 2218 Rocket 3.9 20:38:15 30° SSW 20:41:30 84° W 20:47:46 10° N
Meteor 1-22 Rocket 4.1 20:43:07 54° SSW 20:44:29 87° WNW 20:50:20 10° NNE
USA 307 3.5 20:41:10 10° WNW 20:44:34 54° NW 20:44:34 54° NW
Cosmos 2263 4.4 20:42:56 10° SW 20:48:31 68° WNW 20:54:08 10° NNE
MetOp-B 4.1 20:49:13 74° SSW 20:49:37 79° WSW 20:55:01 10° NNW
Cosmos 2219 4.4 20:45:02 10° NNW 20:50:00 30° NE 20:50:02 30° NE
Cosmos 2112 Rocket 4.0 20:47:26 10° NNW 20:52:24 78° N 20:52:24 78° N
Terra 3.1 20:58:41 31° NNE 20:58:41 31° NNE 21:01:35 10° N
ERS-1 Rocket 3.7 20:59:18 45° NNE 20:59:18 45° NNE 21:03:06 10° N
USA 306 4.1 20:55:18 10° WNW 20:58:06 40° WNW 20:58:06 40° WNW
Cosmos 1656 Rocket 4.2 20:55:50 10° SW 21:01:19 58° NW 21:06:46 10° NNE
USA 308 4.3 21:00:26 10° WNW 21:03:06 37° WNW 21:03:06 37° WNW
USA 281 3.1 20:58:56 10° NNE 21:05:33 88° WNW 21:08:21 38° SSW
Cosmos 1867 4.2 21:00:47 10° NW 21:05:41 49° NNE 21:05:41 49° NNE
SJ 16-02 3.3 21:10:56 10° WSW 21:14:46 28° NW 21:18:39 10° N
Cosmos 1821 Rocket 4.1 21:31:30 76° NW 21:31:30 76° NW 21:37:34 10° N
Cosmos 2297 Rocket 2.9 21:36:05 10° NNW 21:40:14 48° N 21:40:14 48° N
CENTAUR R/B 3.7 21:45:13 35° NE 21:45:13 35° NE 21:49:20 10° NE
Cosmos 2123 Rocket 4.3 21:44:44 10° NNW 21:49:58 63° NNW 21:49:58 63° NNW
Resurs 01 Rocket 4.4 22:01:42 11° W 22:01:42 11° W 22:03:05 10° WNW
Cosmos 2227 Rocket 3.3 21:58:02 10° NNW 22:01:45 42° NNW 22:01:45 42° NNW
Cosmos 2369 Rocket 4.5 22:02:10 10° W 22:06:23 21° NW 22:10:37 10° NNE
Cosmos 2263 Rocket 3.9 22:18:34 10° NNW 22:21:55 26° NNE 22:21:55 26° NNE
Terra 4.2 22:37:34 19° NW 22:37:34 19° NW 22:39:11 10° NNW
CENTAUR R/B 3.9 23:32:20 36° NW 23:33:35 38° NNW 23:40:44 10° NE
Cosmos 1980 Rocket 4.3 23:45:06 21° NE 23:45:06 21° NE 23:46:51 10° NNE
SL-16 R/B 4.3 23:50:54 23° NE 23:51:06 23° NE 23:55:51 10° N
